| time (UTC) | temp F | wind direction | speed MPH | gust MPH | rain 1hr in | rain 24hr in | rain mn in | humidity % | barometer mb |
| 20260508114525 | 51 | 276 | 4.0 | 10.0 | 0.00 | 0.00 | 0.00 | 65 | 1008.8 |
| 20260508113024 | 52 | 266 | 6.0 | 11.0 | 0.00 | 0.00 | 0.00 | 64 | 1008.8 |
| 20260508111523 | 53 | 278 | 7.0 | 13.0 | 0.00 | 0.00 | 0.00 | 63 | 1008.6 |
| 20260508110022 | 54 | 269 | 8.0 | 15.0 | 0.00 | 0.00 | 0.00 | 63 | 1008.6 |
| 20260508104525 | 55 | 262 | 9.0 | 16.0 | 0.00 | 0.00 | 0.00 | 62 | 1008.8 |
| 20260508103021 | 56 | 261 | 11.0 | 17.0 | 0.00 | 0.00 | 0.00 | 64 | 1008.8 |
| 20260508101520 | 56 | 259 | 9.0 | 15.0 | 0.00 | 0.00 | 0.00 | 65 | 1008.7 |
| 20260508100021 | 55 | 251 | 7.0 | 14.0 | 0.00 | 0.00 | 0.00 | 65 | 1008.7 |
| 20260508094518 | 56 | 270 | 5.0 | 11.0 | 0.00 | 0.00 | 0.00 | 66 | 1008.9 |
| 20260508093023 | 55 | 258 | 5.0 | 10.0 | 0.00 | 0.00 | 0.00 | 67 | 1008.9 |
| 20260508091516 | 54 | 239 | 5.0 | 9.0 | 0.00 | 0.00 | 0.00 | 71 | 1009.2 |
| 20260508090017 | 53 | 218 | 2.0 | 5.0 | 0.00 | 0.00 | 0.00 | 74 | 1009.3 |
| 20260508084516 | 52 | 219 | 0.0 | 9.0 | 0.00 | 0.00 | 0.00 | 74 | 1009.3 |
| 20260508083041 | 52 | 207 | 3.0 | 7.0 | 0.00 | 0.00 | 0.00 | 76 | 1009.4 |
| 20260508081514 | 49 | 188 | 4.0 | 7.0 | 0.00 | 0.00 | 0.00 | 80 | 1009.3 |
| 20260508080011 | 49 | 191 | 5.0 | 8.0 | 0.00 | 0.00 | 0.00 | 77 | 1009.1 |
| 20260508074507 | 52 | 203 | 2.0 | 7.0 | 0.00 | 0.00 | 0.00 | 72 | 1008.8 |
| 20260508073006 | 53 | 231 | 3.0 | 8.0 | 0.00 | 0.00 | 0.00 | 70 | 1008.7 |
| 20260508071503 | 54 | 235 | 4.0 | 7.0 | 0.00 | 0.00 | 0.00 | 68 | 1008.9 |
| 20260508070004 | 55 | 257 | 6.0 | 11.0 | 0.00 | 0.00 | 0.00 | 66 | 1008.7 |
| 20260508064504 | 55 | 227 | 5.0 | 9.0 | 0.00 | 0.00 | 0.00 | 67 | 1008.9 |
| 20260508063100 | 53 | 279 | 3.0 | 6.0 | 0.00 | 0.00 | 0.00 | 71 | 1008.8 |
| 20260508061559 | 55 | 264 | 5.0 | 9.0 | 0.00 | 0.00 | 0.00 | 66 | 1009.0 |
| 20260508054555 | 56 | 228 | 3.0 | 7.0 | 0.00 | 0.00 | 0.00 | 63 | 1009.4 |
| 20260508053048 | 57 | 261 | 4.0 | 9.0 | 0.00 | 0.00 | 0.00 | 61 | 1009.3 |
| 20260508053017 | 57 | 252 | 4.0 | 9.0 | 0.00 | 0.00 | 0.00 | 61 | 1009.3 |
| 20260508051545 | 57 | 239 | 4.0 | 7.0 | 0.00 | 0.00 | 0.00 | 61 | 1009.3 |
| 20260508050046 | 57 | 238 | 3.0 | 8.0 | 0.00 | 0.00 | 0.00 | 58 | 1009.3 |
| 20260508044541 | 58 | 276 | 5.0 | 8.0 | 0.00 | 0.00 | 0.00 | 56 | 1009.3 |
| 20260508043041 | 61 | 264 | 4.0 | 10.0 | 0.00 | 0.00 | 0.00 | 51 | 1009.3 |
| 20260508041540 | 61 | 224 | 4.0 | 7.0 | 0.00 | 0.00 | 0.00 | 49 | 1009.1 |
| 20260508040039 | 59 | 270 | 2.0 | 5.0 | 0.00 | 0.00 | 0.00 | 53 | 1009.2 |
| 20260508034539 | 57 | 191 | 2.0 | 3.0 | 0.00 | 0.00 | 0.00 | 56 | 1009.2 |
| 20260508033038 | 56 | 193 | 1.0 | 3.0 | 0.00 | 0.00 | 0.00 | 56 | 1009.2 |
| 20260508031538 | 58 | 155 | 2.0 | 4.0 | 0.00 | 0.00 | 0.00 | 52 | 1009.1 |
| 20260508030038 | 60 | 186 | 2.0 | 5.0 | 0.00 | 0.00 | 0.00 | 47 | 1009.2 |
| 20260508024548 | 60 | 183 | 2.0 | 3.0 | 0.00 | 0.00 | 0.00 | 44 | 1008.9 |
| 20260508023038 | 63 | 177 | 2.0 | 3.0 | 0.00 | 0.00 | 0.00 | 40 | 1008.9 |
| 20260508021536 | 64 | 200 | 0.0 | 0.0 | 0.00 | 0.00 | 0.00 | 36 | 1008.7 |
| 20260508020039 | 67 | 260 | 0.0 | 0.0 | 0.00 | 0.00 | 0.00 | 33 | 1008.6 |
| 20260508014536 | 68 | 259 | 0.0 | 1.0 | 0.00 | 0.00 | 0.00 | 32 | 1008.6 |
| 20260508013035 | 68 | 269 | 1.0 | 2.0 | 0.00 | 0.00 | 0.00 | 34 | 1008.6 |
| 20260508011547 | 69 | 276 | 0.0 | 1.0 | 0.00 | 0.00 | 0.00 | 33 | 1008.4 |
| 20260508010034 | 69 | 281 | 1.0 | 3.0 | 0.00 | 0.00 | 0.00 | 35 | 1008.5 |
| 20260508004549 | 70 | 269 | 2.0 | 4.0 | 0.00 | 0.00 | 0.00 | 35 | 1008.5 |
| 20260508003037 | 72 | 249 | 3.0 | 4.0 | 0.00 | 0.00 | 0.00 | 32 | 1008.5 |
| 20260508001537 | 72 | 268 | 1.0 | 8.0 | 0.00 | 0.00 | 0.00 | 34 | 1008.6 |
| 20260508000030 | 72 | 263 | 3.0 | 7.0 | 0.00 | 0.00 | 0.00 | 33 | 1008.6 |
| 20260507234530 | 71 | 262 | 4.0 | 9.0 | 0.00 | 0.00 | 0.00 | 34 | 1008.7 |
| 20260507233029 | 72 | 285 | 6.0 | 9.0 | 0.00 | 0.00 | 0.00 | 33 | 1008.9 |
| 20260507231527 | 73 | 274 | 8.0 | 11.0 | 0.00 | 0.00 | 0.00 | 30 | 1008.9 |
| 20260507230028 | 75 | 266 | 5.0 | 10.0 | 0.00 | 0.02 | 0.00 | 29 | 1008.9 |
| 20260507224526 | 73 | 226 | 1.0 | 3.0 | 0.00 | 0.02 | 0.00 | 28 | 1009.1 |
| 20260507223025 | 72 | 245 | 0.0 | 3.0 | 0.00 | 0.02 | 0.00 | 33 | 1009.2 |
| 20260507221522 | 72 | 295 | 2.0 | 7.0 | 0.00 | 0.02 | 0.00 | 32 | 1009.4 |
| 20260507220021 | 73 | 262 | 2.0 | 6.0 | 0.00 | 0.02 | 0.00 | 31 | 1009.6 |
| 20260507214522 | 74 | 263 | 3.0 | 5.0 | 0.00 | 0.02 | 0.00 | 27 | 1009.6 |
| 20260507213026 | 72 | 254 | 3.0 | 6.0 | 0.00 | 0.02 | 0.00 | 29 | 1009.8 |
| 20260507211516 | 73 | 279 | 1.0 | 4.0 | 0.00 | 0.02 | 0.00 | 29 | 1010.1 |
| 20260507210015 | 73 | 257 | 0.0 | 8.0 | 0.00 | 0.02 | 0.00 | 27 | 1010.2 |
| 20260507204514 | 73 | 303 | 5.0 | 15.0 | 0.00 | 0.02 | 0.00 | 31 | 1010.4 |
| 20260507203016 | 74 | 281 | 5.0 | 10.0 | 0.00 | 0.02 | 0.00 | 28 | 1010.6 |
| 20260507201512 | 74 | 304 | 5.0 | 16.0 | 0.00 | 0.02 | 0.00 | 28 | 1010.9 |
| 20260507200017 | 74 | 254 | 1.0 | 10.0 | 0.00 | 0.08 | 0.00 | 27 | 1011.1 |
| 20260507194507 | 73 | 256 | 2.0 | 12.0 | 0.00 | 0.08 | 0.00 | 29 | 1011.2 |
| 20260507193111 | 73 | 261 | 6.0 | 13.0 | 0.00 | 0.08 | 0.00 | 32 | 1011.3 |
| 20260507191504 | 73 | 266 | 8.0 | 13.0 | 0.00 | 0.08 | 0.00 | 29 | 1011.5 |
| 20260507190004 | 72 | 255 | 5.0 | 9.0 | 0.00 | 0.08 | 0.00 | 30 | 1011.6 |
| 20260507184558 | 72 | 267 | 5.0 | 10.0 | 0.00 | 0.08 | 0.00 | 31 | 1011.8 |
| 20260507183100 | 71 | 257 | 5.0 | 11.0 | 0.00 | 0.08 | 0.00 | 32 | 1012.0 |
| 20260507181554 | 71 | 248 | 8.0 | 14.0 | 0.00 | 0.08 | 0.00 | 30 | 1012.2 |
| 20260507180101 | 71 | 290 | 4.0 | 13.0 | 0.00 | 0.08 | 0.00 | 34 | 1012.4 |
| 20260507174552 | 70 | 248 | 6.0 | 16.0 | 0.00 | 0.08 | 0.00 | 32 | 1012.4 |
| 20260507173054 | 69 | 287 | 7.0 | 14.0 | 0.00 | 0.08 | 0.00 | 36 | 1012.7 |
| 20260507171546 | 68 | 245 | 8.0 | 19.0 | 0.00 | 0.08 | 0.00 | 33 | 1012.9 |
| 20260507170041 | 66 | 256 | 10.0 | 17.0 | 0.00 | 0.08 | 0.00 | 37 | 1013.1 |
| 20260507164541 | 66 | 240 | 7.0 | 17.0 | 0.00 | 0.08 | 0.00 | 37 | 1013.2 |
| 20260507163036 | 65 | 257 | 9.0 | 20.0 | 0.00 | 0.08 | 0.00 | 41 | 1013.2 |
| 20260507161533 | 63 | 251 | 9.0 | 16.0 | 0.00 | 0.08 | 0.00 | 44 | 1013.3 |
| 20260507160030 | 61 | 215 | 9.0 | 17.0 | 0.00 | 0.08 | 0.00 | 47 | 1013.3 |
| 20260507154525 | 59 | 272 | 8.0 | 14.0 | 0.00 | 0.08 | 0.00 | 50 | 1013.6 |
| 20260507153022 | 58 | 224 | 8.0 | 15.0 | 0.00 | 0.08 | 0.00 | 50 | 1013.8 |
| 20260507151518 | 57 | 216 | 6.0 | 15.0 | 0.00 | 0.08 | 0.00 | 52 | 1013.7 |
| 20260507150017 | 56 | 224 | 10.0 | 15.0 | 0.00 | 0.08 | 0.00 | 51 | 1014.0 |
| 20260507144512 | 55 | 212 | 10.0 | 17.0 | 0.00 | 0.08 | 0.00 | 51 | 1014.0 |
| 20260507143008 | 54 | 210 | 8.0 | 15.0 | 0.00 | 0.08 | 0.00 | 56 | 1013.9 |
| 20260507141504 | 53 | 207 | 9.0 | 14.0 | 0.00 | 0.08 | 0.00 | 59 | 1014.0 |
| 20260507140125 | 51 | 209 | 9.0 | 13.0 | 0.00 | 0.08 | 0.00 | 62 | 1013.9 |
| 20260507134556 | 49 | 212 | 4.0 | 10.0 | 0.00 | 0.08 | 0.00 | 73 | 1014.1 |
| 20260507133052 | 45 | 212 | 7.0 | 11.0 | 0.00 | 0.08 | 0.00 | 78 | 1014.2 |
| 20260507131558 | 42 | 195 | 7.0 | 10.0 | 0.00 | 0.08 | 0.00 | 84 | 1014.1 |
| 20260507130050 | 40 | 186 | 5.0 | 8.0 | 0.00 | 0.08 | 0.00 | 87 | 1014.0 |
| 20260507124549 | 38 | 185 | 4.0 | 6.0 | 0.00 | 0.08 | 0.00 | 87 | 1014.2 |
| 20260507123052 | 37 | 217 | 1.0 | 3.0 | 0.00 | 0.08 | 0.00 | 87 | 1014.0 |
| 20260507121543 | 36 | 183 | 2.0 | 5.0 | 0.00 | 0.08 | 0.00 | 88 | 1013.9 |
| 20260507120138 | 35 | 181 | 3.0 | 5.0 | 0.00 | 0.08 | 0.00 | 88 | 1014.0 |